GW3122 Weather Reports


time (UTC)temp
F
wind
direction
speed
knots
gust
knots
rain 1hr
in
rain 24hr
in
rain mn
in
humidity
%
barometer
mb
20260905170029 65 227 3.5 13.0 0.01 0.05 0.04 60 1016.3
20260905164526 65 298 5.2 13.9 0.01 0.05 0.04 60 1016.2
20260905163025 65 267 1.7 8.7 0.01 0.05 0.04 61 1016.1
20260905161523 65 255 3.5 11.3 0.00 0.04 0.03 60 1016.0
20260905160014 66 226 1.7 10.4 0.00 0.04 0.03 61 1015.8
20260905154503 67 267 5.2 13.9 0.00 0.04 0.03 58 1015.7
20260905153004 66 343 4.3 9.6 0.00 0.04 0.03 59 1015.6
20260905151608 66 305 3.5 11.3 0.00 0.04 0.03 60 1015.6
20260905150045 67 294 3.5 11.3 0.00 0.04 0.03 60 1015.8
20260905144546 66 271 2.6 10.4 0.00 0.04 0.03 59 1015.6
20260905143044 67 163 6.1 17.4 0.00 0.04 0.03 57 1015.5
20260905141555 67 239 2.6 9.6 0.00 0.04 0.03 57 1015.5
20260905140024 68 225 1.7 10.4 0.00 0.04 0.03 57 1015.6
20260905134524 69 275 4.3 13.9 0.00 0.04 0.03 56 1015.5
20260905133023 68 225 5.2 13.9 0.00 0.04 0.03 60 1015.5
20260905131524 68 286 4.3 14.8 0.00 0.04 0.03 61 1015.6
20260905130106 68 221 4.3 14.8 0.00 0.04 0.03 61 1015.6
20260905124603 68 240 4.3 13.9 0.00 0.04 0.03 63 1015.5
20260905123101 66 271 3.5 10.4 0.00 0.04 0.03 64 1015.7
20260905121602 67 240 4.3 13.0 0.00 0.04 0.03 62 1015.8
20260905120042 68 258 7.0 13.9 0.00 0.04 0.03 58 1015.9
20260905114536 67 267 3.5 12.2 0.00 0.04 0.03 65 1016.1
20260905113025 65 261 1.7 9.6 0.00 0.04 0.03 67 1016.2
20260905111513 66 264 2.6 10.4 0.00 0.04 0.03 64 1016.1
20260905110053 67 292 6.1 13.0 0.00 0.04 0.03 57 1016.0
20260905104553 66 221 4.3 12.2 0.00 0.04 0.03 61 1015.8
20260905103049 67 280 5.2 12.2 0.01 0.04 0.03 60 1015.7
20260905101540 66 329 1.7 15.6 0.01 0.04 0.03 64 1015.7
20260905100018 65 265 5.2 15.6 0.01 0.05 0.03 62 1015.7
20260905094517 65 275 6.1 15.6 0.01 0.05 0.03 62 1015.6
20260905093016 65 286 4.3 13.9 0.00 0.04 0.02 64 1015.6
20260905091512 65 305 5.2 12.2 0.00 0.04 0.02 63 1015.6
20260905090114 65 223 4.3 14.8 0.00 0.04 0.02 68 1015.6
20260905084548 64 251 4.3 15.6 0.00 0.04 0.02 67 1015.6
20260905083048 64 284 2.6 13.9 0.00 0.04 0.02 70 1015.4
20260905081543 63 233 3.5 13.0 0.00 0.04 0.02 73 1015.3
20260905080012 62 161 3.5 14.8 0.00 0.04 0.02 74 1015.3
20260905074507 62 268 3.5 13.0 0.00 0.04 0.02 75 1015.1
20260905073107 62 203 4.3 13.0 0.00 0.04 0.02 77 1014.9
20260905071557 61 268 4.3 13.9 0.00 0.04 0.02 77 1014.6
20260905070037 61 268 5.2 13.0 0.00 0.04 0.02 78 1014.6
20260905064528 61 247 4.3 13.0 0.00 0.04 0.02 79 1014.4
20260905063020 60 215 4.3 17.4 0.00 0.04 0.02 81 1014.5
20260905061515 60 275 4.3 13.9 0.00 0.04 0.02 83 1014.3
20260905060054 60 340 4.3 12.2 0.00 0.04 0.02 84 1014.2
20260905054546 59 323 2.6 11.3 0.01 0.04 0.02 86 1014.2
20260905053041 58 248 3.5 8.7 0.01 0.04 0.02 86 1014.0
20260905051538 57 221 2.6 10.4 0.01 0.04 0.02 87 1013.8
20260905050009 57 264 3.5 12.2 0.01 0.04 0.02 87 1013.7
20260905044502 57 204 2.6 10.4 0.00 0.03 0.01 87 1013.6
20260905043057 58 221 1.7 8.7 0.00 0.03 0.01 87 1013.5
20260905041555 58 234 4.3 9.6 0.00 0.03 0.01 87 1013.4
20260905040034 58 294 2.6 11.3 0.00 0.03 0.01 87 1013.0
20260905034532 58 219 2.6 11.3 0.00 0.03 0.01 88 1013.1
20260905033030 58 276 1.7 7.8 0.00 0.03 0.01 88 1012.9
20260905031532 58 262 3.5 10.4 0.00 0.03 0.01 88 1012.6
20260905030008 58 252 2.6 12.2 0.00 0.03 0.01 88 1012.3
20260905024508 59 227 3.5 11.3 0.00 0.03 0.01 88 1012.2
20260905023103 59 278 3.5 11.3 0.00 0.03 0.01 88 1012.1
20260905021603 59 248 3.5 13.0 0.00 0.03 0.01 88 1011.8
20260905020044 59 267 3.5 9.6 0.00 0.03 0.01 89 1011.5
20260905014543 59 292 1.7 11.3 0.00 0.03 0.01 90 1011.4
20260905013041 59 240 1.7 7.8 0.01 0.03 0.01 90 1012.1
20260905011548 59 233 2.6 8.7 0.01 0.03 0.01 90 1011.2
20260905010023 59 277 2.6 10.4 0.01 0.04 0.01 90 1011.4
20260905004521 59 205 3.5 10.4 0.01 0.04 0.01 89 1011.2
20260905003030 59 203 4.3 13.9 0.00 0.03 0.00 90 1011.3
20260905001526 59 286 3.5 13.0 0.00 0.03 0.00 90 1011.1
20260905000005 59 277 3.5 8.7 0.00 0.03 0.00 90 1011.3
20260904234503 59 276 2.6 11.3 0.00 0.03 0.00 90 1010.6
20260904233003 59 243 2.6 10.4 0.00 0.03 0.00 90 1010.9
20260904231603 59 294 3.5 10.4 0.00 0.03 0.00 90 1010.9
20260904230058 59 244 3.5 13.9 0.00 0.03 0.00 90 1010.2
20260904224541 59 232 4.3 8.7 0.00 0.03 0.00 90 1010.1
20260904223049 59 285 2.6 10.4 0.00 0.03 0.00 89 1010.3
20260904221537 59 273 4.3 9.6 0.00 0.03 0.00 89 1009.9
20260904220013 59 231 3.5 10.4 0.01 0.03 0.03 89 1010.0
20260904214512 59 253 3.5 9.6 0.01 0.03 0.03 89 1010.0
20260904213011 59 133 2.6 12.2 0.01 0.03 0.03 88 1009.9
20260904211510 59 186 3.5 9.6 0.01 0.03 0.03 87 1009.2
20260904210050 60 207 2.6 7.8 0.00 0.02 0.02 85 1009.4
20260904204543 60 283 2.6 7.8 0.00 0.02 0.02 84 1009.7
20260904203037 61 229 5.2 12.2 0.00 0.02 0.02 83 1010.4
20260904201549 62 232 4.3 10.4 0.00 0.02 0.02 83 1009.7
20260904200031 62 255 4.3 10.4 0.00 0.02 0.02 83 1009.8
20260904194512 64 304 2.6 16.5 0.00 0.02 0.02 80 1010.0
20260904193009 68 13 3.5 9.6 0.00 0.02 0.02 74 1009.7
20260904191502 68 10 1.7 12.2 0.00 0.02 0.02 72 1008.3
20260904190049 69 327 2.6 14.8 0.00 0.02 0.02 71 1008.5
20260904184606 71 284 7.8 15.6 0.00 0.02 0.02 69 1008.5
20260904183049 72 296 7.8 17.4 0.00 0.02 0.02 68 1008.1
20260904181546 74 262 4.3 11.3 0.00 0.02 0.02 69 1006.7
20260904180026 73 212 2.6 8.7 0.00 0.02 0.02 69 1006.1
20260904174557 73 139 4.3 10.4 0.00 0.02 0.02 69 1006.0
20260904173021 74 144 3.5 10.4 0.00 0.02 0.02 69 1006.2
20260904171519 73 183 2.6 7.8 0.00 0.02 0.02 70 1006.6